カタログに戻る

STARLINK-37787

運用中通信SSO
NORAD 69692·PAYLOAD·🇺🇸 United States

打ち上げ Jun 25, 2026 から Vandenberg Space Force Base

Loading…

次のパス (今後24時間)

TLE

最新Source: CelesTrak SupGP

元期: Sep 15, 2026, 03:24 UTC

1 69692C 26145R   26258.14215278 -.00033737  00000+0 -10469-2 0  2587
2 69692  97.2849 104.9264 0001813  91.4391 314.1219 15.33465827    15

AllMySatでSTARLINK-37787をリアルタイム追跡

Download on the App Store